"startDT [UTC]","vpos","CH4 [ppm]","stdev(CH4) [ppm]","CO2 [ppm]","stdev(CO2) [ppm]","H2O [ppm]","stdev(H2O)","p_LGR [torr]","T_LGR [C]","mt1_LGR [us]","mt2_LGR [us]","T_ECpre [C]","T_EC1 [C]","T_EC2 [C]","p_inlet [hPa]","p_in [hPa]","p_out [hPa]","T_inlet [C]","RH_inlet [%]","dwpt_inlet [C]","T_vent [C]","RH_vent [%]","dwpt_vent [C]","flow_vent [l min-1]","flow_inlet [l min-1]","dwpt_sample [C]","T_room [C]"
2012-08-13 00:00:00,0.0,1.9272,0.0010,386.09,0.28,31.4,25.8,138.06,31.61,24.66,36.55,1.08,-3.56,-26.28,-46,542,-922,26.1,27.6,6.0,26.0,1.4,-30.4,5.73,2.39,-27.8,30.2
2012-08-13 00:01:00,0.0,1.9284,0.0010,386.01,0.28,38.4,25.3,138.06,31.61,24.67,36.55,0.98,-4.97,-26.27,-46,542,-922,26.1,27.6,6.0,26.0,1.5,-30.3,5.73,2.36,-27.8,30.1
2012-08-13 00:02:00,0.0,1.9290,0.0009,385.99,0.32,32.2,27.6,138.06,31.61,24.66,36.55,0.99,-5.40,-26.26,-46,542,-922,26.1,27.4,5.9,26.0,1.5,-30.2,5.73,2.37,-27.8,30.1
2012-08-13 00:03:00,0.0,1.9292,0.0009,386.01,0.30,31.9,27.0,138.06,31.60,24.66,36.55,1.07,-6.70,-26.25,-46,542,-922,26.1,27.5,5.9,26.0,1.5,-30.2,5.73,2.39,-27.8,30.2
2012-08-13 00:04:00,0.0,1.9301,0.0010,386.00,0.29,30.9,27.1,138.06,31.60,24.66,36.55,1.05,-8.29,-26.25,-47,542,-922,26.1,27.5,5.9,26.0,1.5,-30.2,5.73,2.37,-27.8,30.1
2012-08-13 00:05:00,0.0,1.9309,0.0009,386.03,0.26,37.0,30.1,138.06,31.60,24.66,36.55,0.96,-9.63,-26.24,-46,542,-922,26.1,27.3,5.8,26.0,1.5,-30.2,5.73,2.37,-27.8,30.1
2012-08-13 00:06:00,0.0,1.9313,0.0010,386.02,0.24,31.2,28.9,138.06,31.60,24.66,36.55,1.03,-10.85,-26.24,-46,542,-922,26.1,27.2,5.8,26.0,1.5,-30.2,5.73,2.39,-27.8,30.1
2012-08-13 00:07:00,0.0,1.9316,0.0009,386.02,0.32,30.4,24.3,138.06,31.59,24.66,36.55,1.08,-11.92,-26.24,-46,542,-922,26.1,27.3,5.8,26.0,1.5,-30.2,5.73,2.39,-27.8,30.1
2012-08-13 00:08:00,0.0,1.9317,0.0009,386.06,0.28,38.5,32.8,138.06,31.59,24.66,36.55,1.01,-12.97,-26.25,-47,542,-922,26.1,27.0,5.6,26.0,1.5,-30.2,5.73,2.36,-27.8,30.1
2012-08-13 00:09:00,0.0,1.9317,0.0008,386.07,0.32,44.3,31.5,138.06,31.59,24.67,36.55,0.97,-13.96,-26.25,-47,542,-922,26.1,27.0,5.6,26.0,1.5,-30.2,5.73,2.38,-27.8,30.1
2012-08-13 00:10:00,0.0,1.9327,0.0010,386.00,0.25,35.7,28.8,138.06,31.59,24.66,36.55,1.02,-14.87,-26.25,-46,542,-922,26.1,26.9,5.6,26.0,1.5,-30.2,5.73,2.40,-27.8,30.1
2012-08-13 00:11:00,0.0,1.9328,0.0010,386.01,0.28,33.7,27.8,138.06,31.59,24.66,36.54,1.07,-15.75,-26.26,-46,542,-922,26.1,26.9,5.6,26.0,1.5,-30.3,5.73,2.38,-27.8,30.1
2012-08-13 00:12:00,0.0,1.9330,0.0010,385.87,0.30,29.5,23.6,138.06,31.58,24.66,36.55,1.00,-16.58,-26.27,-47,542,-922,26.1,26.9,5.6,26.0,1.5,-30.4,5.73,2.36,-27.8,30.2
2012-08-13 00:13:00,0.0,1.9336,0.0011,385.82,0.29,35.8,28.8,138.06,31.58,24.66,36.55,0.97,-17.35,-26.27,-47,542,-922,26.1,27.0,5.6,26.0,1.5,-30.4,5.73,2.39,-27.8,30.1
2012-08-13 00:14:00,0.0,1.9335,0.0011,385.82,0.30,36.0,30.0,138.06,31.58,24.66,36.55,1.03,-18.09,-26.28,-47,542,-922,26.1,27.2,5.7,26.0,1.4,-30.4,5.73,2.40,-27.8,30.1
2012-08-13 00:15:00,0.0,1.9333,0.0011,385.75,0.26,34.7,29.7,138.06,31.57,24.67,36.55,1.06,-18.78,-26.29,-47,542,-922,26.1,27.2,5.7,26.0,1.4,-30.4,5.73,2.37,-27.8,30.1
2012-08-13 00:16:00,0.0,1.9345,0.0011,385.79,0.24,28.4,25.7,138.06,31.57,24.66,36.55,1.00,-19.42,-26.30,-46,542,-922,26.1,26.9,5.6,26.0,1.4,-30.4,5.73,2.37,-27.8,30.1
2012-08-13 00:17:00,0.0,1.9353,0.0011,385.76,0.34,30.2,23.6,138.06,31.57,24.66,36.55,0.96,-20.00,-26.31,-47,542,-922,26.1,27.0,5.6,26.0,1.4,-30.4,5.73,2.40,-27.7,30.1
2012-08-13 00:18:00,0.0,1.9349,0.0009,385.72,0.29,33.8,28.7,138.06,31.57,24.66,36.55,1.00,-20.57,-26.32,-47,542,-922,26.1,27.0,5.6,26.0,1.4,-30.4,5.73,2.39,-27.8,30.1
2012-08-13 00:19:00,0.0,1.9359,0.0008,385.71,0.30,26.2,24.2,138.06,31.57,24.66,36.55,1.06,-21.13,-26.33,-47,542,-922,26.1,27.0,5.6,26.0,1.4,-30.4,5.73,2.37,-27.8,30.1
2012-08-13 00:20:00,0.0,1.9360,0.0009,385.82,0.27,37.8,28.1,138.06,31.56,24.66,36.54,1.04,-21.65,-26.34,-46,542,-922,26.1,27.0,5.6,26.0,1.4,-30.4,5.73,2.38,-27.8,30.1
2012-08-13 00:21:00,0.0,1.9364,0.0008,385.77,0.30,26.5,21.9,138.06,31.56,24.66,36.55,0.96,-22.15,-26.35,-46,542,-922,26.1,27.0,5.6,26.0,1.4,-30.4,5.73,2.39,-27.8,30.1
2012-08-13 00:22:00,0.0,1.9363,0.0010,385.76,0.31,27.3,24.2,138.06,31.56,24.66,36.55,0.98,-22.63,-26.37,-47,542,-922,26.1,27.0,5.6,26.0,1.4,-30.4,5.73,2.38,-27.8,30.1
2012-08-13 00:23:00,0.0,1.9369,0.0009,385.72,0.27,38.0,33.5,138.06,31.55,24.66,36.55,1.04,-23.07,-26.38,-46,542,-922,26.1,27.1,5.7,26.0,1.4,-30.4,5.73,2.37,-27.8,30.1
2012-08-13 00:24:00,0.0,1.9369,0.0010,385.76,0.31,29.1,23.6,138.06,31.55,24.66,36.55,1.06,-23.49,-26.39,-46,542,-922,26.1,27.2,5.7,26.0,1.4,-30.4,5.73,2.39,-27.8,30.1
2012-08-13 00:25:00,0.0,1.9374,0.0010,385.72,0.33,22.9,23.6,138.06,31.55,24.66,36.55,0.98,-23.89,-26.41,-46,542,-922,26.1,27.2,5.7,26.0,1.4,-30.4,5.73,2.40,-27.8,30.0
2012-08-13 00:26:00,0.0,1.9367,0.0011,385.63,0.32,31.6,25.4,138.06,31.54,24.67,36.55,0.96,-24.26,-26.42,-47,542,-922,26.1,27.3,5.8,26.0,1.4,-30.4,5.73,2.37,-27.8,30.1
2012-08-13 00:27:00,0.0,1.9374,0.0011,385.70,0.28,25.7,25.3,138.06,31.54,24.66,36.55,1.03,-24.61,-26.43,-47,542,-922,26.1,27.3,5.8,26.0,1.5,-30.4,5.73,2.38,-27.8,30.1
2012-08-13 00:28:00,0.0,1.9381,0.0009,385.71,0.30,26.0,27.3,138.06,31.54,24.66,36.55,1.05,-24.93,-26.44,-47,542,-922,26.1,27.4,5.8,26.0,1.4,-30.5,5.73,2.39,-27.8,30.1
2012-08-13 00:29:00,0.0,1.9384,0.0010,385.63,0.29,30.3,28.8,138.06,31.54,24.66,36.55,1.00,-25.23,-26.46,-46,542,-922,26.1,27.4,5.8,26.0,1.4,-30.6,5.73,2.39,-27.8,30.1
2012-08-13 00:30:00,0.0,1.9388,0.0009,385.84,0.29,22.1,20.9,138.06,31.54,24.66,36.55,1.15,-43.96,-44.72,-46,542,-922,26.1,27.5,5.9,26.0,1.4,-30.6,5.42,2.43,-31.9,30.1
2012-08-13 00:31:00,0.0,1.9392,0.0010,385.82,0.26,28.9,23.2,138.06,31.53,24.66,36.55,0.99,-25.79,-26.48,-47,542,-922,26.1,27.3,5.8,26.0,1.4,-30.6,5.73,2.38,-27.8,30.1
2012-08-13 00:32:00,0.0,1.9395,0.0011,385.85,0.28,30.3,27.6,138.06,31.53,24.66,36.54,1.04,-26.04,-26.49,-47,542,-922,26.1,27.1,5.6,26.0,1.4,-30.6,5.73,2.40,-27.8,30.0
2012-08-13 00:33:00,0.0,1.9395,0.0010,385.55,0.31,31.4,24.7,138.06,31.53,24.66,36.56,1.04,-26.28,-26.50,-47,542,-922,26.1,27.0,5.6,26.0,1.4,-30.6,5.73,2.38,-27.8,30.0
2012-08-13 00:34:00,0.0,1.9395,0.0007,385.83,0.25,35.0,29.7,138.06,31.52,24.67,36.54,0.92,-26.44,-26.51,-46,542,-922,26.1,26.9,5.6,26.0,1.4,-30.6,5.73,2.37,-27.8,30.1
2012-08-13 00:35:00,0.0,1.9400,0.0008,385.76,0.21,33.1,27.9,138.06,31.52,24.66,36.55,0.97,-26.18,-26.52,-47,542,-922,26.1,27.0,5.6,26.0,1.4,-30.7,5.73,2.38,-27.8,30.0
2012-08-13 00:36:00,0.0,1.9406,0.0009,385.70,0.29,22.5,23.0,138.06,31.52,24.66,36.54,1.02,-26.28,-26.54,-47,542,-922,26.1,27.2,5.7,26.0,1.4,-30.6,5.73,2.40,-27.8,30.0
2012-08-13 00:37:00,0.0,1.9408,0.0009,385.70,0.28,26.3,26.6,138.06,31.52,24.66,36.55,1.04,-26.47,-26.55,-47,542,-922,26.1,27.2,5.7,26.0,1.4,-30.6,5.73,2.38,-27.8,30.1
2012-08-13 00:38:00,0.0,1.9402,0.0009,385.79,0.26,33.5,24.4,138.06,31.52,24.67,36.55,0.96,-26.29,-26.55,-47,542,-922,26.1,27.0,5.6,26.0,1.4,-30.6,5.73,2.37,-27.8,30.1
2012-08-13 00:39:00,0.0,1.9407,0.0010,385.89,0.28,28.0,26.3,138.06,31.51,24.66,36.54,0.99,-26.25,-26.57,-46,542,-922,26.1,26.8,5.5,26.0,1.4,-30.6,5.73,2.39,-27.8,30.1
2012-08-13 00:40:00,0.0,1.9412,0.0009,385.78,0.32,28.8,24.2,138.06,31.51,24.66,36.55,0.96,-26.43,-26.58,-46,542,-922,26.1,26.8,5.5,26.0,1.4,-30.6,5.73,2.39,-27.8,30.1
2012-08-13 00:41:00,0.0,1.9419,0.0009,385.76,0.24,26.9,24.5,138.06,31.51,24.66,36.55,0.92,-26.46,-26.59,-47,542,-922,26.1,26.8,5.5,26.0,1.4,-30.6,5.73,2.37,-27.8,30.1
2012-08-13 00:42:00,0.0,1.9425,0.0010,385.64,0.27,24.1,23.8,138.06,31.51,24.66,36.55,1.04,-26.25,-26.60,-47,542,-922,26.0,27.1,5.6,26.0,1.4,-30.6,5.73,2.37,-27.8,30.0
2012-08-13 00:43:00,0.0,1.9423,0.0009,385.77,0.22,29.4,24.9,138.06,31.51,24.67,36.55,1.08,-26.40,-26.61,-46,542,-922,26.1,27.0,5.6,26.0,1.4,-30.6,5.73,2.40,-27.8,30.1
2012-08-13 00:44:00,0.0,1.9431,0.0010,385.67,0.31,25.4,23.5,138.06,31.50,24.66,36.55,0.92,-26.55,-26.62,-46,542,-922,26.1,26.9,5.5,26.0,1.4,-30.6,5.73,2.39,-27.8,30.1
2012-08-13 00:45:00,0.0,1.9436,0.0010,385.63,0.26,23.6,24.7,138.06,31.50,24.66,36.55,0.96,-26.29,-26.62,-46,542,-922,26.0,27.1,5.6,26.0,1.4,-30.7,5.73,2.36,-27.8,30.1
2012-08-13 00:46:00,0.0,1.9431,0.0009,385.73,0.33,31.5,23.4,138.06,31.50,24.66,36.54,0.99,-26.36,-26.63,-46,542,-922,26.0,27.0,5.6,26.0,1.4,-30.8,5.73,2.38,-27.8,30.1
2012-08-13 00:47:00,0.0,1.9439,0.0010,385.81,0.24,22.9,21.6,138.06,31.50,24.66,36.55,1.03,-26.54,-26.64,-46,542,-922,26.0,26.9,5.5,26.0,1.4,-30.8,5.73,2.40,-27.8,30.1
2012-08-13 00:48:00,0.0,1.9434,0.0009,385.68,0.26,25.0,25.2,138.06,31.50,24.67,36.55,0.95,-26.41,-26.64,-46,542,-922,26.1,26.9,5.6,26.0,1.4,-30.7,5.73,2.38,-27.8,30.1
2012-08-13 00:49:00,0.0,1.9435,0.0012,385.58,0.31,23.4,24.9,138.06,31.49,24.66,36.55,0.84,-26.35,-25.86,-46,542,-922,26.0,27.2,5.7,26.0,1.4,-30.5,5.73,2.38,-27.8,30.1
2012-08-13 00:50:00,0.0,1.9432,0.0011,385.46,0.31,25.2,23.7,138.06,31.49,24.66,36.55,0.86,-26.49,-24.06,-46,542,-922,26.0,27.2,5.7,26.0,1.6,-29.4,5.73,2.40,-27.9,30.1
2012-08-13 00:51:00,0.0,1.9431,0.0008,385.50,0.30,29.4,28.4,138.06,31.49,24.66,36.55,0.90,-26.59,-22.08,-46,542,-922,26.0,27.0,5.5,26.0,1.8,-28.3,5.73,2.40,-27.9,30.1
2012-08-13 00:52:00,0.0,1.9440,0.0009,385.44,0.32,22.0,23.0,138.06,31.49,24.66,36.55,0.94,-26.66,-20.14,-46,542,-922,26.0,27.3,5.7,26.0,1.9,-27.7,5.73,2.38,-27.9,30.1
2012-08-13 00:53:00,0.0,1.9430,0.0012,385.26,0.25,23.5,26.3,138.06,31.49,24.66,36.55,0.96,-26.70,-18.28,-46,542,-922,26.0,27.5,5.8,26.0,1.9,-27.6,5.73,2.38,-27.9,30.2
2012-08-13 00:54:00,0.0,1.9406,0.0012,385.47,0.27,20.7,20.3,138.06,31.49,24.66,36.55,0.87,-26.72,-16.51,-46,542,-922,26.0,27.1,5.6,25.9,1.9,-27.6,5.73,2.41,-27.9,30.2
2012-08-13 00:55:00,0.0,1.9399,0.0009,385.41,0.33,19.0,22.4,138.06,31.49,24.66,36.55,0.81,-26.73,-14.84,-46,542,-922,26.0,27.0,5.6,25.9,1.9,-27.7,5.73,2.39,-27.9,30.2
2012-08-13 00:56:00,0.0,1.9394,0.0009,385.10,0.27,24.2,25.0,138.06,31.48,24.66,36.55,0.84,-26.74,-13.25,-46,542,-922,26.0,27.3,5.7,25.9,1.8,-28.0,5.73,2.37,-27.9,30.2
2012-08-13 00:57:00,0.0,1.9385,0.0009,385.17,0.36,30.0,26.4,138.06,31.48,24.66,36.55,0.89,-26.74,-11.74,-46,542,-922,26.0,27.3,5.7,25.9,1.8,-28.1,5.73,2.40,-27.9,30.2
2012-08-13 00:58:00,0.0,1.9374,0.0010,385.14,0.31,28.9,24.6,138.06,31.48,24.66,36.55,0.93,-26.75,-10.31,-46,542,-922,26.0,27.1,5.6,25.9,1.8,-28.3,5.73,2.40,-27.9,30.2
2012-08-13 00:59:00,0.0,1.9377,0.0009,384.74,0.21,26.7,25.9,138.06,31.48,24.66,36.56,0.94,-26.74,-8.97,-46,542,-922,26.0,27.2,5.7,25.9,1.8,-28.4,5.73,2.38,-27.9,30.2
2012-08-13 01:00:00,0.0,1.9366,0.0008,384.61,0.30,28.5,28.0,138.06,31.48,24.66,36.56,0.91,-26.74,-7.68,-46,542,-922,26.0,27.3,5.7,25.9,1.7,-28.6,5.73,2.39,-27.9,30.1
2012-08-13 01:01:00,0.0,1.9358,0.0009,384.89,0.29,26.1,26.6,138.06,31.47,24.66,36.55,0.87,-26.72,-6.47,-46,542,-922,26.0,27.0,5.5,25.9,1.7,-28.6,5.73,2.40,-27.9,30.1
2012-08-13 01:02:00,0.0,1.9354,0.0010,384.73,0.29,27.5,28.1,138.06,31.47,24.66,36.55,0.83,-26.73,-5.31,-46,542,-922,26.0,27.0,5.5,25.9,1.7,-28.8,5.73,2.38,-27.8,30.2
2012-08-13 01:03:00,0.0,1.9349,0.0010,384.73,0.30,26.2,25.5,138.06,31.47,24.66,36.55,0.89,-26.71,-4.21,-46,542,-922,26.0,27.0,5.5,25.9,1.7,-28.9,5.73,2.38,-27.8,30.2
2012-08-13 01:04:00,0.0,1.9352,0.0008,384.76,0.28,27.3,23.8,138.06,31.47,24.66,36.55,0.92,-26.70,-3.17,-46,542,-922,26.0,26.8,5.4,25.9,1.7,-29.0,5.73,2.40,-27.8,30.2
2012-08-13 01:05:00,0.0,1.9354,0.0009,384.78,0.34,29.1,23.6,138.06,31.47,24.66,36.54,0.93,-26.70,-2.17,-46,541,-922,26.0,26.8,5.5,25.9,1.7,-29.1,5.73,2.39,-27.8,30.2
2012-08-13 01:06:00,0.0,1.9349,0.0010,384.52,0.39,25.7,25.1,138.06,31.47,24.66,36.54,0.94,-26.68,-1.23,-46,541,-922,26.0,26.9,5.5,25.9,1.6,-29.1,5.73,2.38,-27.8,30.2
2012-08-13 01:07:00,0.0,1.9338,0.0010,385.03,0.27,26.2,23.5,138.06,31.47,24.67,36.55,0.94,-26.67,-0.33,-46,541,-922,26.0,26.4,5.2,25.9,1.6,-29.2,5.73,2.41,-27.8,30.2
2012-08-13 01:08:00,0.0,1.9344,0.0010,384.49,0.39,24.8,26.8,138.06,31.47,24.66,36.55,0.93,-26.66,0.52,-46,541,-922,26.0,26.7,5.4,25.9,1.6,-29.2,5.73,2.39,-27.8,30.2
2012-08-13 01:09:00,0.0,1.9344,0.0011,384.55,0.38,27.6,24.2,138.06,31.47,24.66,36.55,0.90,-26.66,1.31,-46,541,-922,26.0,26.8,5.4,25.9,1.6,-29.3,5.73,2.38,-27.8,30.2
2012-08-13 01:10:00,0.0,1.9339,0.0008,385.01,0.30,35.8,28.3,138.06,31.47,24.66,36.55,0.89,-26.64,2.07,-46,541,-922,26.0,26.3,5.2,25.9,1.6,-29.3,5.73,2.41,-27.7,30.3
2012-08-13 01:11:00,0.0,1.9337,0.0009,384.74,0.28,37.8,29.4,138.06,31.47,24.66,36.55,0.88,-26.64,2.70,-46,541,-922,26.0,26.4,5.2,25.9,1.6,-29.3,5.73,2.40,-27.7,30.2
2012-08-13 01:12:00,0.0,1.9341,0.0010,384.57,0.27,31.8,29.9,138.06,31.47,24.66,36.55,0.91,-26.63,3.10,-46,541,-922,26.0,26.6,5.3,25.9,1.6,-29.5,5.73,2.38,-27.7,30.2
2012-08-13 01:13:00,0.0,1.9341,0.0011,384.43,0.33,32.0,26.1,138.06,31.47,24.66,36.54,0.90,-26.61,3.28,-46,541,-922,26.0,26.8,5.4,25.9,1.6,-29.5,5.73,2.40,-27.7,30.2
2012-08-13 01:14:00,0.0,1.9352,0.0011,384.53,0.32,26.9,24.0,138.06,31.47,24.66,36.55,0.92,-26.60,3.55,-46,541,-922,26.0,26.8,5.4,25.9,1.6,-29.5,5.73,2.40,-27.7,30.2
2012-08-13 01:15:00,0.0,1.9345,0.0010,384.71,0.37,30.8,22.5,138.06,31.47,24.67,36.55,0.94,-26.59,3.98,-46,541,-922,26.0,26.7,5.4,25.9,1.6,-29.5,5.73,2.37,-27.7,30.2
2012-08-13 01:16:00,0.0,1.9339,0.0009,384.71,0.27,36.2,27.8,138.06,31.47,24.66,36.55,0.95,-26.58,4.54,-46,541,-922,26.0,26.4,5.2,25.8,1.6,-29.5,5.73,2.40,-27.8,30.2
2012-08-13 01:17:00,0.0,1.9322,0.0008,384.84,0.28,33.0,29.8,138.06,31.47,24.66,36.54,0.95,-26.58,5.12,-46,541,-922,25.9,26.1,5.0,25.8,1.6,-29.5,5.73,2.40,-27.7,30.2
2012-08-13 01:18:00,0.0,1.9325,0.0008,384.52,0.28,31.9,30.3,138.06,31.47,24.66,36.55,0.94,-26.57,5.66,-46,541,-922,26.0,26.4,5.2,25.8,1.6,-29.6,5.73,2.38,-27.7,30.2
2012-08-13 01:19:00,0.0,1.9326,0.0009,384.04,0.29,29.1,23.2,138.06,31.47,24.66,36.55,0.93,-26.56,6.17,-46,541,-922,25.9,26.8,5.4,25.8,1.6,-29.8,5.73,2.40,-27.7,30.2
2012-08-13 01:20:00,0.0,1.9325,0.0009,384.20,0.35,35.5,27.5,138.06,31.46,24.66,36.55,0.90,-26.55,6.67,-46,541,-922,25.9,26.7,5.3,25.8,1.6,-29.7,5.73,2.41,-27.7,30.3
2012-08-13 01:21:00,0.0,1.9329,0.0010,383.90,0.36,33.9,28.0,138.06,31.46,24.66,36.55,0.88,-26.54,7.14,-46,541,-922,25.9,27.0,5.5,25.8,1.6,-29.7,5.73,2.38,-27.7,30.3
2012-08-13 01:22:00,0.0,1.9321,0.0009,384.37,0.34,35.5,28.7,138.06,31.46,24.66,36.55,0.90,-26.54,7.59,-46,541,-922,25.9,26.7,5.3,25.8,1.6,-29.8,5.73,2.40,-27.7,30.3
2012-08-13 01:23:00,0.0,1.9326,0.0009,384.56,0.33,34.1,28.9,138.06,31.46,24.66,36.54,0.90,-26.53,8.02,-46,541,-922,25.9,26.4,5.2,25.8,1.6,-29.7,5.73,2.40,-27.7,30.3
2012-08-13 01:24:00,0.0,1.9322,0.0010,384.39,0.30,32.1,27.7,138.06,31.46,24.66,36.55,0.91,-26.52,8.44,-46,541,-922,25.9,26.4,5.2,25.8,1.6,-29.8,5.73,2.37,-27.7,30.2
2012-08-13 01:25:00,0.0,1.9306,0.0011,384.40,0.32,26.2,24.0,138.06,31.46,24.66,36.55,0.93,-26.51,8.84,-46,541,-922,25.9,26.2,5.1,25.8,1.6,-29.7,5.73,2.39,-27.7,30.2
2012-08-13 01:26:00,0.0,1.9315,0.0013,384.41,0.29,35.4,28.0,138.06,31.46,24.66,36.55,0.94,-26.50,9.23,-46,541,-922,25.9,26.2,5.0,25.8,1.6,-29.7,5.73,2.41,-27.7,30.3
2012-08-13 01:27:00,0.0,1.9302,0.0008,384.20,0.31,31.7,27.5,138.06,31.45,24.66,36.55,0.93,-26.50,9.60,-46,541,-922,25.9,26.2,5.1,25.8,1.6,-29.7,5.73,2.37,-27.7,30.3
2012-08-13 01:28:00,0.0,1.9299,0.0009,384.27,0.34,27.2,26.3,138.06,31.45,24.66,36.55,0.94,-26.49,9.97,-46,541,-922,25.9,26.2,5.1,25.8,1.6,-29.8,5.73,2.40,-27.7,30.2
2012-08-13 01:29:00,0.0,1.9299,0.0010,383.89,0.30,37.1,27.0,138.06,31.45,24.66,36.56,0.95,-26.49,10.33,-46,541,-922,25.9,26.5,5.2,25.8,1.6,-29.7,5.73,2.41,-27.7,30.2
2012-08-13 01:30:00,0.0,1.9287,0.0011,384.24,0.31,37.1,24.9,138.06,31.46,24.66,36.55,0.95,-26.48,10.67,-46,541,-922,25.9,26.0,5.0,25.8,1.6,-29.7,5.73,2.37,-27.7,30.3
2012-08-13 01:31:00,0.0,1.9270,0.0015,384.38,0.35,27.4,23.2,138.06,31.45,24.66,36.55,0.94,-26.47,11.01,-46,541,-922,25.9,25.6,4.7,25.8,1.6,-29.7,5.73,2.40,-27.6,30.2
2012-08-13 01:32:00,0.0,1.9266,0.0008,384.28,0.36,41.5,30.5,138.06,31.45,24.66,36.55,0.93,-26.47,11.33,-46,541,-922,25.9,25.6,4.7,25.8,1.6,-29.7,5.73,2.41,-27.6,30.3
2012-08-13 01:33:00,0.0,1.9262,0.0009,384.47,0.35,32.1,28.5,138.06,31.45,24.66,36.54,0.91,-26.47,11.64,-46,541,-922,25.9,25.4,4.6,25.8,1.6,-29.8,5.73,2.37,-27.7,30.2
2012-08-13 01:34:00,0.0,1.9268,0.0010,384.31,0.39,34.6,27.2,138.06,31.45,24.66,36.55,0.91,-26.46,11.94,-46,541,-922,25.9,25.6,4.7,25.8,1.6,-29.8,5.73,2.39,-27.7,30.3
2012-08-13 01:35:00,0.0,1.9284,0.0009,384.10,0.27,34.4,26.9,138.06,31.45,24.66,36.55,0.91,-26.45,12.24,-46,541,-922,25.9,26.0,4.9,25.8,1.6,-29.7,5.73,2.41,-27.6,30.3
2012-08-13 01:36:00,0.0,1.9279,0.0012,384.07,0.33,32.5,27.2,138.06,31.45,24.66,36.55,0.90,-26.45,12.52,-46,541,-922,25.9,26.0,4.9,25.8,1.5,-29.8,5.73,2.37,-27.6,30.2
2012-08-13 01:37:00,0.0,1.9274,0.0011,384.21,0.39,36.8,30.0,138.06,31.45,24.66,36.55,0.92,-26.44,12.80,-46,541,-922,25.9,25.8,4.8,25.8,1.6,-29.7,5.73,2.40,-27.7,30.3
2012-08-13 01:38:00,0.0,1.9274,0.0008,383.98,0.30,38.2,29.9,138.06,31.45,24.66,36.55,0.91,-26.43,13.06,-46,541,-922,25.9,26.2,5.0,25.8,1.6,-29.7,5.73,2.40,-27.7,30.3
2012-08-13 01:39:00,0.0,1.9272,0.0011,383.99,0.28,38.0,29.0,138.06,31.45,24.66,36.55,0.92,-26.43,13.31,-46,541,-922,25.9,26.2,5.1,25.8,1.6,-29.8,5.73,2.37,-27.7,30.3
2012-08-13 01:40:00,0.0,1.9266,0.0010,384.24,0.32,30.6,27.1,138.06,31.45,24.66,36.56,0.92,-26.43,13.55,-46,541,-922,25.9,25.7,4.8,25.8,1.6,-29.8,5.73,2.40,-27.6,30.3
2012-08-13 01:41:00,0.0,1.9268,0.0009,384.25,0.30,36.9,29.8,138.06,31.45,24.66,36.55,0.93,-26.42,13.78,-46,541,-922,25.9,25.7,4.8,25.8,1.6,-29.8,5.73,2.40,-27.7,30.3
2012-08-13 01:42:00,0.0,1.9270,0.0010,384.17,0.24,41.1,30.1,138.06,31.45,24.66,36.55,0.93,-26.42,14.00,-46,541,-922,25.9,25.8,4.8,25.8,1.6,-29.8,5.73,2.37,-27.6,30.3
2012-08-13 01:43:00,0.0,1.9275,0.0008,383.72,0.37,33.1,28.0,138.06,31.45,24.66,36.55,0.94,-26.42,14.21,-46,541,-922,25.9,26.4,5.1,25.7,1.6,-29.8,5.73,2.40,-27.6,30.3
2012-08-13 01:44:00,0.0,1.9277,0.0011,383.51,0.30,35.5,26.5,138.06,31.45,24.66,36.55,0.94,-26.41,14.42,-46,541,-922,25.9,26.8,5.4,25.7,1.6,-29.8,5.73,2.40,-27.6,30.3
2012-08-13 01:45:00,0.0,1.9263,0.0009,383.86,0.49,41.1,28.8,138.06,31.45,24.66,36.55,0.95,-26.40,14.61,-46,541,-922,25.9,26.5,5.2,25.7,1.6,-29.8,5.73,2.37,-27.6,30.3
2012-08-13 01:46:00,0.0,1.9262,0.0009,383.88,0.34,36.5,26.3,138.06,31.45,24.66,36.56,0.94,-26.40,14.79,-46,541,-922,25.9,26.3,5.1,25.7,1.6,-29.8,5.73,2.40,-27.6,30.2
2012-08-13 01:47:00,0.0,1.9260,0.0011,383.76,0.30,38.6,27.1,138.06,31.45,24.67,36.55,0.94,-26.39,14.97,-46,541,-922,25.9,26.8,5.3,25.7,1.6,-29.7,5.73,2.40,-27.6,30.3
2012-08-13 01:48:00,0.0,1.9264,0.0011,383.86,0.44,29.1,26.3,138.06,31.45,24.67,36.55,0.93,-26.38,15.15,-46,541,-922,25.9,26.6,5.2,25.8,1.6,-29.8,5.73,2.37,-27.6,30.3
2012-08-13 01:49:00,0.0,1.9269,0.0010,384.34,0.27,38.2,30.4,138.06,31.45,24.67,36.55,0.93,-26.38,15.31,-46,541,-922,25.9,25.8,4.8,25.7,1.6,-29.8,5.73,2.40,-27.6,30.3
2012-08-13 01:50:00,0.0,1.9270,0.0009,383.96,0.35,41.1,28.8,138.06,31.45,24.67,36.55,0.91,-26.38,15.46,-46,541,-922,25.9,26.1,5.0,25.8,1.6,-29.8,5.73,2.40,-27.6,30.3
2012-08-13 01:51:00,0.0,1.9277,0.0009,384.05,0.31,37.8,28.5,138.06,31.45,24.66,36.55,0.93,-26.37,15.61,-46,541,-922,25.9,25.9,4.9,25.7,1.6,-29.7,5.73,2.37,-27.6,30.3
2012-08-13 01:52:00,0.0,1.9273,0.0011,383.98,0.32,32.6,25.7,138.06,31.45,24.66,36.55,0.90,-26.37,15.75,-46,541,-922,25.9,25.9,4.8,25.8,1.6,-29.8,5.73,2.41,-27.6,30.3
2012-08-13 01:53:00,0.0,1.9276,0.0011,384.19,0.33,35.2,25.5,138.06,31.45,24.66,36.54,0.91,-26.37,15.88,-46,541,-922,25.9,25.9,4.8,25.7,1.6,-29.8,5.73,2.40,-27.6,30.3
2012-08-13 01:54:00,0.0,1.9278,0.0009,384.16,0.29,37.6,26.1,138.06,31.45,24.66,36.54,0.93,-26.36,16.02,-46,541,-922,25.9,25.8,4.8,25.8,1.6,-29.8,5.73,2.37,-27.6,30.3
2012-08-13 01:55:00,0.0,1.9267,0.0009,383.97,0.28,27.2,26.2,138.06,31.45,24.66,36.55,0.92,-26.36,16.15,-46,541,-922,25.9,25.5,4.7,25.8,1.6,-29.8,5.73,2.41,-27.6,30.3
2012-08-13 01:56:00,0.0,1.9266,0.0010,384.12,0.26,38.5,28.4,138.06,31.45,24.66,36.55,0.89,-26.35,16.26,-46,541,-922,25.9,25.2,4.5,25.8,1.6,-29.7,5.73,2.39,-27.6,30.3
2012-08-13 01:57:00,0.0,1.9258,0.0010,384.18,0.40,44.8,30.3,138.06,31.45,24.66,36.55,0.91,-26.35,16.38,-46,541,-922,25.9,25.1,4.4,25.8,1.6,-29.8,5.73,2.38,-27.6,30.3
2012-08-13 01:58:00,0.0,1.9264,0.0010,384.06,0.38,38.5,27.8,138.06,31.45,24.66,36.55,0.92,-26.35,16.49,-46,541,-922,25.9,25.4,4.6,25.8,1.6,-29.8,5.73,2.41,-27.6,30.3
2012-08-13 01:59:00,0.0,1.9267,0.0012,383.85,0.34,29.8,21.2,138.06,31.44,24.67,36.54,0.94,-26.34,16.60,-46,541,-922,25.9,26.0,4.9,25.7,1.6,-29.8,5.73,2.39,-27.6,30.3
2012-08-13 02:00:00,0.0,1.9269,0.0011,383.68,0.54,37.6,27.5,138.06,31.44,24.66,36.55,0.93,-26.34,16.70,-46,541,-922,25.9,25.9,4.9,25.7,1.6,-29.8,5.73,2.38,-27.6,30.3
2012-08-13 02:01:00,0.0,1.9262,0.0009,384.27,0.32,43.8,30.7,138.06,31.44,24.66,36.55,0.94,-26.34,16.79,-46,541,-922,25.9,25.2,4.5,25.7,1.6,-29.8,5.73,2.41,-27.6,30.3
2012-08-13 02:02:00,0.0,1.9267,0.0011,384.23,0.32,31.8,21.9,138.06,31.44,24.67,36.55,0.93,-26.34,16.88,-46,541,-922,25.9,25.6,4.7,25.7,1.6,-29.7,5.73,2.38,-27.6,30.2
2012-08-13 02:03:00,0.0,1.9281,0.0010,383.56,0.28,35.3,22.4,138.06,31.44,24.66,36.55,0.94,-26.34,16.97,-46,541,-922,25.9,26.3,5.1,25.7,1.6,-29.8,5.73,2.38,-27.6,30.2
2012-08-13 02:04:00,0.0,1.9275,0.0009,383.73,0.42,35.4,24.4,138.06,31.44,24.66,36.55,0.94,-26.33,17.06,-46,541,-922,25.9,26.3,5.1,25.7,1.6,-29.8,5.73,2.41,-27.6,30.3
2012-08-13 02:05:00,0.0,1.9276,0.0010,383.60,0.33,35.1,28.7,138.06,31.44,24.66,36.55,0.94,-26.33,17.14,-46,541,-922,25.9,26.5,5.2,25.7,1.6,-29.8,5.73,2.38,-27.6,30.3
2012-08-13 02:06:00,0.0,1.9279,0.0009,384.00,0.43,45.2,27.9,138.06,31.44,24.66,36.55,0.94,-26.33,17.22,-46,541,-922,25.9,25.8,4.8,25.7,1.6,-29.8,5.73,2.39,-27.6,30.4
2012-08-13 02:07:00,0.0,1.9274,0.0009,384.12,0.27,34.8,26.3,138.06,31.44,24.66,36.55,0.95,-26.32,17.30,-46,541,-922,25.9,25.8,4.8,25.7,1.6,-29.8,5.73,2.41,-27.6,30.3
2012-08-13 02:08:00,0.0,1.9280,0.0010,383.78,0.31,39.0,29.6,138.06,31.44,24.66,36.55,0.95,-26.32,17.36,-46,541,-922,25.9,26.1,5.0,25.8,1.6,-29.8,5.73,2.37,-27.5,30.3
2012-08-13 02:09:00,0.0,1.9288,0.0009,383.58,0.29,36.4,26.0,138.06,31.44,24.66,36.55,0.94,-26.31,17.43,-46,541,-922,25.9,26.3,5.1,25.8,1.6,-29.8,5.73,2.39,-27.5,30.3
2012-08-13 02:10:00,0.0,1.9288,0.0009,384.05,0.29,42.5,30.8,138.06,31.44,24.66,36.55,0.93,-26.31,17.50,-46,541,-922,25.9,25.9,4.9,25.8,1.5,-29.8,5.73,2.41,-27.5,30.3
2012-08-13 02:11:00,0.0,1.9291,0.0010,383.76,0.37,35.8,31.8,138.06,31.44,24.66,36.55,0.93,-26.31,17.56,-46,541,-922,25.9,26.3,5.1,25.8,1.5,-29.9,5.73,2.37,-27.5,30.3
2012-08-13 02:12:00,0.0,1.9292,0.0009,383.95,0.35,44.2,27.6,138.06,31.44,24.66,36.54,0.93,-26.31,17.62,-46,541,-922,25.9,26.0,5.0,25.8,1.5,-29.9,5.73,2.40,-27.5,30.3
2012-08-13 02:13:00,0.0,1.9291,0.0009,383.92,0.26,48.0,31.9,138.06,31.44,24.66,36.54,0.91,-26.30,17.68,-46,541,-922,26.0,26.2,5.1,25.8,1.5,-29.9,5.73,2.41,-27.5,30.3
2012-08-13 02:14:00,0.0,1.9294,0.0009,383.33,0.30,38.7,27.2,138.06,31.44,24.67,36.55,0.91,-26.30,17.74,-46,541,-922,26.0,26.2,5.1,25.9,1.5,-29.8,5.73,2.37,-27.5,30.2
2012-08-13 02:15:00,0.0,1.9303,0.0009,383.99,0.32,41.6,27.7,138.06,31.44,24.66,36.56,0.92,-26.30,17.79,-46,541,-922,26.0,25.2,4.5,25.9,1.5,-29.9,5.73,2.40,-27.3,30.2
2012-08-13 02:16:00,0.0,1.9302,0.0009,383.59,0.37,54.0,30.4,138.06,31.44,24.66,36.55,0.93,-26.30,17.84,-46,541,-922,26.0,25.8,4.9,25.9,1.5,-29.9,5.73,2.40,-27.3,30.2
2012-08-13 02:17:00,0.0,1.9303,0.0008,383.38,0.37,46.5,31.0,138.06,31.45,24.66,36.55,0.92,-26.30,17.89,-46,541,-922,26.0,26.0,5.0,25.9,1.5,-29.9,5.73,2.37,-27.3,30.3
2012-08-13 02:18:00,0.0,1.9300,0.0009,383.96,0.29,51.1,30.9,138.06,31.45,24.66,36.55,0.93,-26.29,17.94,-46,542,-922,26.0,25.5,4.8,26.0,1.5,-29.8,5.73,2.40,-27.3,30.3
2012-08-13 02:19:00,0.0,1.9304,0.0010,384.06,0.33,56.3,31.3,138.06,31.45,24.66,36.55,0.92,-26.29,17.98,-46,542,-922,26.1,25.1,4.5,26.0,1.5,-29.8,5.73,2.40,-27.3,30.3
2012-08-13 02:20:00,0.0,1.9311,0.0009,383.78,0.33,41.2,26.3,138.06,31.45,24.66,36.55,0.91,-26.29,18.02,-46,542,-922,26.1,25.5,4.8,26.0,1.5,-29.9,5.73,2.37,-27.3,30.3